Home   Weather   Nampula   Past weeks

Flag for Mozambique Past Weather in Nampula, Mozambique — Yesterday and Last 2 Weeks

Now
68 °F

Passing clouds.


Feels Like: 68 °F
Forecast: 62 / 75 °F
Wind: 13 mph from Southwest

Location: Nampula Airport

Current Time: Aug 20, 2017 at 6:05:48 am

Latest Report: Aug 20, 2017 at 5:00 am


Visibility: N/A

Pressure: 30.12 "Hg

Humidity: 88%

Dew Point: 64 °F

Location of NampulaLocation

Past Weather in Nampula — Graph

°F

Nampula Temperature Yesterday

Maximum temperature yesterday: 84 °F (at 2:00 pm)
Minimum temperature yesterday: 68 °F (at 1:00 am)
Average temperature yesterday: 74 °F

High & Low Weather Summary for the Past Weeks

 TemperatureHumidityPressure
High88 °F (Aug 18, 1:00 pm)100% (Aug 7, 11:00 pm)30.24 "Hg (Aug 7, 11:00 pm)
Low61 °F (Aug 6, 11:00 am)35% (Aug 5, 2:00 pm)29.89 "Hg (Aug 17, 4:00 pm)
Average72 °F75%30.10 "Hg
* Reported Aug 5 4:00 am — Aug 20 4:00 am, Nampula. Weather by CustomWeather, © 2017

Note: Actual official high and low records may vary slightly from our data, if they occured in-between our weather recording intervals... More about our weather records

Advertising

Nampula Weather History for the Previous 24 Hours

Scroll right to see more
 ConditionsComfort  
Time TempWeatherWind HumidityBarometerVisibility
4:00 am
Sun, Aug 20
68 °FPassing clouds.14 mph88%30.12 "HgN/A
3:00 am70 °FPassing clouds.12 mph83%30.15 "HgN/A
2:00 am70 °FPassing clouds.12 mph83%30.15 "HgN/A
1:00 am70 °FPassing clouds.10 mph88%30.15 "HgN/A
12:00 am72 °FPassing clouds.10 mph83%30.18 "HgN/A
11:00 pm
Sat, Aug 19
70 °FPassing clouds.12 mph88%30.09 "HgN/A
10:00 pm72 °FPassing clouds.10 mph83%30.18 "HgN/A
9:00 pm72 °FPassing clouds.12 mph83%30.18 "HgN/A
8:00 pm73 °FPassing clouds.9 mph78%30.15 "HgN/A
7:00 pm75 °FPassing clouds.13 mph69%30.15 "HgN/A
6:00 pm77 °FPassing clouds.14 mph65%30.12 "HgN/A
5:00 pm81 °FScattered clouds.15 mph58%30.09 "HgN/A
4:00 pm84 °FScattered clouds.7 mph40%30.07 "HgN/A
3:00 pm84 °FPassing clouds.10 mph40%30.07 "HgN/A
2:00 pm84 °FPassing clouds.9 mph45%30.09 "HgN/A
1:00 pm81 °FScattered clouds.9 mph51%30.09 "HgN/A
12:00 pm79 °FPassing clouds.9 mph61%30.12 "HgN/A
10:00 am77 °FPartly sunny.10 mph69%30.15 "HgN/A
9:00 am77 °FScattered clouds.9 mph69%30.15 "HgN/A
8:00 am73 °FPassing clouds.7 mph78%30.15 "HgN/A
7:00 am72 °FSunny.8 mph83%30.12 "Hg10 mi
6:00 am70 °FSunny.No wind94%30.09 "Hg10 mi
Weather by CustomWeather, © 2017

See weather overviewHow to use our weather pages